Regional Weather Roundup
Issued by NWS Cleveland, OH

Home | Current Version | Previous Version | Text Only | Print | Product List | Glossary Off
Versions: 1 2 3 4 5 6 7 8 9 10 11 12 13 14 15 16 17 18 19 20 21 22 23 24 25 26 27 28 29 30 31 32 33 34 35 36 37 38 39 40 41 42 43 44 45 46 47 48 49 50

332
ASUS41 KCLE 190902
RWRCLE
OHIO REGIONAL WEATHER ROUNDUP
NATIONAL WEATHER SERVICE CLEVELAND, OH
400 AM EST SUN FEB 19 2017

NOTE: "FAIR" INDICATES FEW OR NO CLOUDS BELOW 12,000 FEET WITH NO
SIGNIFICANT WEATHER AND/OR OBSTRUCTIONS TO VISIBILITY.

OHZ001>008-015>018-024>027-034-035-043-044-191000-
   NORTHWEST OHIO

CITY           SKY/WX    TMP DP  RH WIND       PRES   REMARKS
DEFIANCE       CLEAR     42  38  85 CALM      29.89R
FINDLAY        CLEAR     46  40  79 W10       29.88R
TOLEDO EXPRESS CLEAR     41  39  93 SW5       29.86R
TOLEDO EXEC    CLEAR     41  38  89 SW8       29.88R
LIMA           PTCLDY    44  43  96 SW8       29.90R
$$

OHZ009>014-019>023-028>033-038-089-191000-
   NORTHEAST OHIO

CITY           SKY/WX    TMP DP  RH WIND       PRES   REMARKS
CLE-HOPKINS    CLEAR     48  40  73 SW8       29.88R
CLE-LAKEFRONT  CLEAR     49  40  71 SW13      29.84R
CUY CO. ARPT   NOT AVBL
LORAIN-ELYRIA  CLEAR     43  37  79 W8        29.86R
ASHTABULA      CLEAR     43  37  79 CALM      29.84R
AKRON-CANTON   CLEAR     44  39  82 SW7       29.87R
WOOSTER        CLEAR     43  40  89 SW8       29.87S
MANSFIELD      CLEAR     46  43  89 SW14      29.87S
YOUNGSTOWN     CLEAR     45  40  82 SW10      29.85R
$$

OHZ042-051>053-060>062-070>072-077>081-191000-
  SOUTHWEST OHIO

CITY           SKY/WX    TMP DP  RH WIND       PRES   REMARKS
CINC-COVINGTON CLEAR     47  45  93 SW5       29.94S
CINC-LUNKEN    CLEAR     47  45  93 S6        29.96R
HAMILTON       FOG       37  37 100 E3        29.95S VSB 1/4
DAYTON         CLEAR     45  43  93 W14       29.92S
WRIGHT-PAT AFB CLEAR     45  45 100 SW3       29.92R
DAYTON GENERAL CLEAR     46  44  93 SW7       29.92R FOG
WILMINGTON     CLEAR     44  43  96 SW8       29.94R
$$

OHZ036-037-039>041-045>050-054>059-063>069-073>076-082>088-191000-
  CENTRAL AND SOUTHEAST OHIO

CITY           SKY/WX    TMP DP  RH WIND       PRES   REMARKS
COLUMBUS       PTCLDY    44  42  93 S3        29.91S FOG
OSU AIRPORT    MOCLDY    46  45  96 W10       29.91R FOG
BOLTON FIELD   CLEAR     44  44  98 W5        29.92R
RICKENBACK AFB CLEAR     42  42 100 SW5       29.93R FOG
NEWARK         CLOUDY    46  43  89 SW6       29.91R
MARION         CLEAR     44  41  89 SW7       29.90R
LANCASTER      CLOUDY    50  45  83 W7        29.93R
ZANESVILLE     CLOUDY    49  43  80 SW5       29.91S
NEW PHILLY     NOT AVBL
$$




USA.gov is the U.S. government's official web portal to all federal, state and local government web resources and services.